一网星座-0407星 (ONEWEB-0407 )

导读 | 星芒AI

ONEWE-0407 是 OneWeb 卫星通信星座计划中的一颗低轨通信卫星,旨在为全球提供高速互联网服务。该卫星由阿丽亚娜航天公司制造,采用标准化设计以提高部署效率。它运行在约 1200 公里的近地轨道,支持高频段通信,服务于航空、海运及偏远地区用户。ONEWE-0407 的发射进一步增强了 OneWeb 的全球网络覆盖能力,助力其实现提供公平数字接入的愿景。

基本信息
目录编号:
50487
目录名称:
ONEWEB-0407
国际标识:
2021-132U
轨道中心:
EARTH
卫星名称:
一网星座-0407星
卫星全名:
一网星座-0407星 (ONEWEB-0407 )
卫星状态:
在轨 (已飞行1449 天)
发射日期:
2021-12-27 UTC
国别 :
英国 (GB)
星等 :
--
轨道信息
数据来源 国际轨道数据 AOE轨道数据
星历时间 2025-12-14T22:01:27+0800
1天前
查看轨道信息
2025-12-15T18:00:00+0800
9小时前
查看轨道信息
半长轴 7567.883km 7567.874km
偏心率 0.0001869 0.0002186
轨道倾角 87.918° 87.921°
近地点辐角 89.567° 84.152°
升交点赤经 12.107° 11.942°
平近点角 270.568° 264.999°
近地点 1188.333km 1188.084km
远地点 1191.163km 1191.394km
周期 109.200分钟 109.199分钟
每日圈数 13.186855 13.186877
详细信息
平衡模式:
三轴稳定
覆盖范围:
全球
运营商:
一网卫星公司
运营商所在国:
英国
制造商(研发单位):
一网卫星公司
制造商所在国:
英国
使用方式:
暂无
卫星简介
OneWeb卫星网络由648颗重约125公斤的微型卫星组成,运行在1200公里的轨道上。 每颗卫星都能够提供至少每秒8千兆位的吞吐量,以使用其高吞吐量的Ku频段有效载荷为家庭和移动平台提供互联网接入。该卫星仍在工作。
2D轨道图
3D轨道图
轨道高度分析图
轨道倾角分析图
轨道综合分析图
查看轨道综合分析图